Погода в Гусятине

Украина / Тернопольская область     49°04′11″N   26°10′55″E
темп.,
°C
ветер,
м/с
пор.,
м/с
влажн.,
%
обл.,
%
осадки,
мм/ч
давл.,
гПа
погр.,
м
13 мая, чт
чт1300:00+8вюв411802 0.0 1011267
03:00+7вюв512800 0.0 1009277
06:00+7юв513907 0.0 1007425
09:00+10юв7118198 0.0 1005650
12:00+13ююв687479 0.1 1005820
15:00+16ююв8869100 0.1 10031019
18:00+13ююв81289100 1.4 1003628
21:00+11юв61290100 1.8 1004412
14 мая, пт
пт1400:00+10юв5129566 0.3 1005356
03:00+8юв379851 0.4 1005169
06:00+9ююв2599100 0.0 1005151
09:00+11юв2391100 0.0 1005168
12:00+14ю2280100 0.0 1006341
15:00+16ю447099 0.8 1006709
18:00+14ююз358290 0.8 1006200
21:00+11зюз4983100 1.0 1008278
15 мая, сб
сб1500:00+9зсз358947 0.0 1009105
03:00+10з2786100 0.0 1010216
06:00+10зюз3895100 0.4 1010305
09:00+11з3687100 1.0 1012386
12:00+15зюз347051 0.1 10121019
15:00+16зюз226481 1.0 1012912
18:00+17ююз116078 0.1 10111061
21:00+13всв22775 0.1 101110
16 мая, вс
вс1600:00+11в358727 0.0 101169
03:00+10вюв37895 0.0 1011117
06:00+9в3989100 0.0 1011170
09:00+15юв5977100 0.0 1011429
12:00+20ююв7961100 0.3 10101137
15:00+22ююв784899 0.4 10092254
18:00+19ююв61063100 0.2 1008995
21:00+15ююв3108499 1.3 1008197
17 мая, пн
пн1700:00+14ю398984 1.3 1009281
03:00+13ссз2795100 1.5 1009220
06:00+12ссз379695 0.1 1010209
09:00+15ссз458217 0.1 1010512
12:00+19ссз456028 0.1 10091407
15:00+20сз445384 0.2 10081864
18:00+20ссз21480 0.0 10071658
21:00+15зюз00680 0.0 100711